#timestamp,LO_Frequency,Hit,StdDev 
1501462815.2,286047000.3,N,1.1
1501462835.1,286046999.9,N,1.1
1501462836.0,286046999.9,N,1.1
1501462855.8,286046998.3,N,1.2
1501462875.7,286047000.6,N,1.1
1501462895.5,286047000.6,N,1.1
1501462915.3,286047000.3,N,1.1
1501462935.2,286047002.5,N,1.1
1501462955.0,286047002.8,N,1.2
1501462955.9,286047002.8,N,1.2
1501462975.8,286047002.7,N,1.2
1501462995.6,286047000.1,N,1.2
1501463015.4,286047000.3,N,1.2
1501463035.3,286046999.7,N,1.1
1501463055.1,286047002.4,N,1.1
1501463075.9,286047000.8,N,1.1
1501463095.7,286047000.4,N,1.1
1501463115.5,286047002.8,N,1.1
1501463135.4,286047002.3,N,1.1
1501463155.2,286047002.6,N,1.2
1501463175.1,286047002.4,N,1.2
1501463176.0,286047002.4,N,1.2
1501463195.8,286047001.9,N,1.2
1501463215.6,286047002.1,N,1.2
1501463235.5,286047001.5,N,1.2
1501463255.3,286047002.0,N,1.2
1501463275.2,286047001.7,N,1.2
1501463295.9,286047001.9,N,1.2
1501463315.7,286047004.1,P,1.4
1501463335.6,286047001.4,N,1.3
1501463355.4,286047002.2,N,1.1
1501463375.3,286047002.6,N,1.0
1501463395.1,286047002.6,N,0.9
1501463396.0,286047002.6,N,0.9
1501463415.8,286047001.9,P,0.3
1501463435.7,286046998.5,P,1.7
1501463455.5,286046998.5,N,1.8
1501463475.4,286046998.4,N,1.8
1501463495.2,286046999.2,N,1.7
1501463515.0,286046998.7,N,1.6
1501463516.0,286046998.7,N,1.5
1501463535.8,286046999.5,N,1.4
1501463555.6,286046996.9,N,1.6
1501463575.5,286046997.1,N,1.6
1501463595.3,286046997.5,N,1.6
1501463615.1,286046997.3,N,1.6
1501463635.9,286046994.9,P,2.0
1501463655.7,286046997.1,N,1.6
1501463675.6,286046996.7,N,1.4
1501463695.4,286046996.8,N,1.2
1501463715.3,286046997.2,N,1.1
1501463735.1,286046997.8,N,1.1
1501463736.0,286046997.8,N,1.1
1501463755.8,286046995.4,P,0.9
1501463775.7,286046998.8,N,1.4
1501463795.5,286046998.4,N,1.3
1501463815.4,286046999.0,N,1.3
1501463835.2,286046998.8,N,1.3
1501463855.0,286046999.4,N,1.3
1501463855.9,286046999.4,N,1.3
1501463875.8,286046999.4,N,1.3
1501463895.6,286046998.3,N,1.2
1501463915.5,286046999.2,N,1.2
1501463935.3,286046999.4,N,1.1
1501463955.1,286046996.6,P,1.0
1501463975.9,286046998.1,N,0.8
1501463995.7,286046998.2,N,0.7
1501464015.6,286046998.6,N,0.7
1501464035.4,286046998.4,N,0.7
1501464055.2,286046999.3,N,0.8
1501464075.1,286046999.5,N,0.8
1501464076.0,286046999.5,N,0.9
1501464095.8,286046999.3,N,0.8
1501464115.7,286046997.1,P,0.8
1501464135.5,286046998.8,N,0.8
1501464155.3,286046999.0,N,0.7
1501464175.2,286046998.4,N,0.7
1501464195.0,286046998.4,N,0.6
1501464195.9,286046998.4,N,0.6
1501464215.8,286046999.3,N,0.6
1501464235.6,286046997.0,P,0.8
1501464255.4,286046998.3,N,0.7
1501464275.3,286046998.8,N,0.7
1501464295.1,286046999.3,N,0.8
1501464315.9,286046998.4,N,0.7
1501464335.7,286046998.9,N,0.7
1501464355.5,286046999.1,N,0.7
1501464375.4,286046996.6,P,1.0
1501464395.2,286047000.5,N,1.6
1501464415.1,286047001.1,N,1.8
1501464416.0,286047001.1,N,1.8
1501464435.8,286047000.8,N,1.7
1501464455.6,286047001.0,N,1.6
1501464475.5,286047000.7,N,1.5
1501464495.3,286047000.7,N,1.4
1501464515.2,286046998.1,N,1.5
1501464535.0,286046998.4,N,1.5
1501464535.9,286046998.4,N,1.5
1501464555.7,286046998.2,N,1.5
1501464575.6,286047001.0,N,1.5
1501464595.4,286047000.9,N,1.5
1501464615.3,286046998.8,N,1.4
1501464635.1,286047001.2,N,1.4
1501464655.8,286046998.2,N,1.4
1501464675.7,286047001.2,N,1.4
1501464695.5,286047001.1,N,1.4
1501464715.4,286046998.1,N,1.4
1501464735.2,286046998.1,N,1.5
1501464755.0,286046998.3,N,1.4
1501464755.9,286046998.3,N,1.4
1501464775.8,286046998.1,N,1.4
1501464795.6,286047001.0,N,1.4
1501464815.5,286047001.2,N,1.4
1501464835.3,286047001.1,N,1.4
1501464855.1,286046998.6,N,1.4
1501464875.9,286047001.1,N,1.4
1501464895.7,286047001.1,N,1.4
1501464915.6,286046998.2,N,1.4
1501464935.4,286046999.0,N,1.4
1501464955.2,286046996.8,N,1.4
1501464975.1,286046996.9,N,1.5
1501464976.0,286046996.9,N,1.5
1501464995.8,286046996.9,N,1.6
1501465015.7,286046997.0,N,1.6
1501465035.5,286046996.6,N,1.6
1501465055.3,286046998.7,N,1.6
1501465075.2,286046999.6,N,1.6
1501465095.0,286046998.7,N,1.6
1501465095.9,286046998.7,N,1.6
1501465115.8,286046999.2,N,1.6
1501465135.6,286046999.1,N,1.5
1501465155.4,286046998.7,N,1.5
1501465175.3,286047001.1,N,1.5
1501465195.1,286047000.4,N,1.5
1501465215.9,286047000.0,N,1.5
1501465235.7,286046999.7,N,1.4
1501465255.5,286047000.1,N,1.5
1501465275.4,286047000.0,N,1.5
1501465295.2,286047000.2,N,1.5
1501465315.1,286047002.5,N,1.6
1501465316.0,286047002.5,N,1.7
1501465335.8,286047002.8,N,1.8
1501465355.6,286046999.9,N,1.7
1501465375.5,286047000.0,N,1.7
1501465395.3,286047000.8,N,1.7
1501465415.1,286047001.6,N,1.7
1501465435.9,286047002.3,N,1.8
1501465455.7,286047002.4,N,1.8
1501465475.6,286047002.3,N,1.9
1501465495.4,286047002.0,N,1.9
1501465515.2,286047002.3,N,1.8
1501465535.1,286047002.7,N,1.8
1501465536.0,286047002.7,N,1.7
1501465555.8,286047002.1,N,1.6
1501465575.7,286046999.7,N,1.4
1501465595.5,286047002.3,N,1.4
1501465615.3,286047001.5,N,1.4
1501465635.2,286047002.1,N,1.3
1501465655.0,286047002.5,N,1.3
1501465655.9,286047002.5,N,1.2
1501465675.8,286047004.2,P,1.5
1501465695.6,286047001.5,N,1.3
1501465715.4,286047002.0,N,1.2
1501465735.3,286047001.5,N,1.1
1501465755.1,286047002.1,N,1.0
1501465775.9,286047002.3,N,0.9
1501465795.7,286047002.1,N,0.9
1501465815.5,286047000.3,N,1.0
1501465835.4,286046999.7,N,1.2
1501465855.2,286047002.5,N,1.1
1501465875.1,286047001.9,N,1.1
1501465876.0,286047001.9,N,1.0
1501465895.8,286047001.5,N,1.0
1501465915.7,286047001.4,N,1.0
1501465935.5,286047003.6,P,0.9
1501465955.3,286047002.8,N,0.8
1501465975.2,286046999.8,N,1.4
1501465995.0,286047002.7,N,1.3
1501465995.9,286047002.7,N,1.2
1501466015.8,286047000.0,N,1.4
1501466035.6,286047001.1,N,1.3
1501466055.4,286047000.4,N,1.3
1501466075.3,286047000.3,N,1.3
1501466095.1,286047000.1,N,1.3
1501466115.9,286047000.4,N,1.3
1501466135.7,286047000.1,N,1.3
1501466155.5,286047002.7,N,1.3
1501466175.4,286047000.5,N,1.3
1501466195.2,286047000.1,N,1.2
1501466215.0,286047000.1,N,1.2
1501466216.0,286047000.1,N,1.2
1501466235.8,286046999.9,N,1.2
1501466255.6,286047002.3,N,1.2
1501466275.5,286047002.0,N,1.2
1501466295.3,286047001.9,N,1.2
1501466315.1,286047002.6,N,1.2
1501466335.9,286047002.0,N,1.2
1501466355.7,286046999.8,N,1.2
1501466375.6,286047002.3,N,1.2
1501466395.4,286046999.7,N,1.2
